Hamilton, OH

12:51 AM EDT on May 24, 2017 (GMT -0400)
Butler County Regional

Weather History for KHAO - January, 2014

Change the Weather History Date:

Tuesday, January 7, 2014

  Actual Average (KLUK) Record (KLUK)
Temperature  
Mean Temperature 4 °F -  
Max Temperature 14 °F 37 °F 69 °F (2008)
Min Temperature -6 °F 21 °F -5 °F (2014)
Degree Days  
Heating Degree Days 61    
Moisture  
Dew Point -6 °F    
Average Humidity 62    
Maximum Humidity 72    
Minimum Humidity 49    
Precipitation  
Precipitation 0.00 in - - ()
Sea Level Pressure  
Sea Level Pressure 30.48 in    
Wind  
Wind Speed 9 mph (SW)    
Max Wind Speed 12 mph    
Max Gust Speed 22 mph    
Visibility 10 miles    
Events      
Averages and records for this station are not official NWS values.
T = Trace of Precipitation, MM = Missing Value Source: NWS Daily Summary

Daily Weather History Graph

Daily Weather History Graph

Search for Another Location

Airport or City:

Trip Planner

Search our weather history database for the weather conditions in past years. The results will help you decide how hot, cold, wet, or windy it might be!

Date:

Astronomy

Jan. 07, 2014 Rise Set
Actual Time 7:58 AM EST 5:30 PM EST
Civil Twilight 7:28 AM EST 6:00 PM EST
Nautical Twilight 6:54 AM EST 6:34 PM EST
Astronomical Twilight 6:22 AM EST 7:06 PM EST
Moon 11:48 AM EST (1/7) 12:00 AM EST (1/7)
Length of Visible Light 10h 32m
Length of Day
9h 32m
Waxing Crescent, 45% of the Moon is Illuminated
Jan 7
Waxing Crescent
Jan 7
First Quarter
Jan 15
Full
Jan 24
Last Quarter
Jan 30
New

Hourly Weather History & Observations

Time (EST) Temp. Windchill Dew Point Humidity Pressure Visibility Wind Dir Wind Speed Gust Speed Precip Events Conditions
12:53 AM -6.0 °F -22.6 °F -15.0 °F 65% 30.47 in 10.0 mi West 9.2 mph 21.9 mph N/A   Clear
1:53 AM -5.1 °F -23.5 °F -14.1 °F 65% 30.47 in 10.0 mi WSW 11.5 mph 17.3 mph N/A   Clear
2:53 AM -5.1 °F -22.5 °F -13.0 °F 69% 30.49 in 10.0 mi WSW 10.4 mph 18.4 mph N/A   Clear
3:53 AM -5.1 °F -19.1 °F -13.0 °F 69% 30.47 in 10.0 mi SW 6.9 mph - N/A   Clear
4:53 AM -5.1 °F -19.1 °F -13.0 °F 69% 30.48 in 10.0 mi SW 6.9 mph - N/A   Clear
5:53 AM -5.1 °F -23.5 °F -13.0 °F 69% 30.47 in 10.0 mi SW 11.5 mph 17.3 mph N/A   Clear
6:53 AM -5.1 °F -19.1 °F -11.9 °F 72% 30.49 in 10.0 mi WSW 6.9 mph - N/A   Clear
7:53 AM -4.0 °F -21.2 °F -11.9 °F 69% 30.51 in 10.0 mi SW 10.4 mph - N/A   Clear
8:53 AM -2.9 °F -20.8 °F -11.0 °F 68% 30.53 in 10.0 mi WSW 11.5 mph - N/A   Clear
9:53 AM -0.0 °F -16.3 °F -9.9 °F 63% 30.56 in 10.0 mi SW 10.4 mph 19.6 mph N/A   Clear
10:53 AM 3.0 °F -12.5 °F -8.0 °F 60% 30.54 in 10.0 mi SW 10.4 mph 17.3 mph N/A   Clear
11:53 AM 5.0 °F -10.8 °F -7.1 °F 58% 30.53 in 10.0 mi WSW 11.5 mph - N/A   Clear
12:53 PM 8.1 °F -5.3 °F -5.1 °F 55% 30.49 in 10.0 mi WSW 9.2 mph 16.1 mph N/A   Clear
1:53 PM 10.0 °F -3.7 °F -2.9 °F 56% 30.47 in 10.0 mi SW 10.4 mph - N/A   Clear
2:53 PM 12.0 °F 1.5 °F -4.0 °F 49% 30.45 in 10.0 mi WSW 6.9 mph - N/A   Clear
3:53 PM 10.9 °F -0.8 °F -2.9 °F 54% 30.47 in 10.0 mi WSW 8.1 mph - N/A   Mostly Cloudy
4:53 PM 10.9 °F 1.4 °F -2.0 °F 56% 30.45 in 10.0 mi SW 5.8 mph - N/A   Overcast
5:53 PM 10.9 °F 2.9 °F -0.9 °F 59% 30.44 in 10.0 mi SSW 4.6 mph - N/A   Overcast
6:53 PM 12.0 °F 4.1 °F 1.0 °F 61% 30.45 in 10.0 mi SSW 4.6 mph - N/A   Overcast
7:53 PM 12.0 °F 1.5 °F -0.0 °F 59% 30.45 in 10.0 mi South 6.9 mph - N/A   Overcast
8:53 PM 12.9 °F 3.8 °F 1.0 °F 59% 30.46 in 10.0 mi South 5.8 mph - N/A   Overcast
9:53 PM 14.0 °F 8.2 °F 1.9 °F 59% 30.48 in 10.0 mi South 3.5 mph - N/A   Overcast
10:53 PM 12.9 °F 3.8 °F 1.9 °F 62% 30.46 in 10.0 mi South 5.8 mph - N/A   Overcast
11:53 PM 12.9 °F 5.2 °F 3.0 °F 65% 30.45 in 10.0 mi Variable 4.6 mph - N/A   Overcast